Miscellaneous Local Product
Issued by NWS Hastings, NE

Home | Current Version | Previous Version | Graphics & Text | Print | Product List | Glossary On
Versions: 1 2 3 4 5 6 7 8 9 10 11 12 13 14 15 16 17 18 19 20 21 22 23 24 25 26 27 28 29 30 31 32 33 34 35 36 37 38 39 40 41 42 43 44 45 46 47 48 49 50
253
AXUS43 KGID 241102
MISGRI

GID CWA HOURLY WEATHER ROUNDUP
NATIONAL WEATHER SERVICE HASTINGS NE
600 AM CDT SAT SEP 24 2016

NOTE: "FAIR" INDICATES FEW OR NO CLOUDS BELOW 12,000 FEET WITH NO
SIGNIFICANT WEATHER AND/OR OBSTRUCTIONS TO VISIBILITY.

...SOUTH CENTRAL NEBRASKA...

CITY           SKY/WX    TMP DP  RH WIND       PRES   REMARKS
GRAND ISLAND   CLOUDY    71  65  81 S14G23    29.88S
HASTINGS       TSTM      70  65  84 S10       29.90R
KEARNEY        CLOUDY    70  64  83 S15G23    29.85R
ORD            CLOUDY    69  64  84 SE10      29.82F
YORK           CLOUDY    72  64  78 SE10G16   29.90F
AURORA         CLOUDY    70  66  85 SE13      29.89S
LEXINGTON      CLOUDY    68  65  88 S9        29.85R
HOLDREGE       LGT RAIN  69  66  89 S10G21    29.86R
HEBRON         MOCLDY    72  65  79 SE12      29.91S

...NEBRASKA PANHANDLE...

CITY           SKY/WX    TMP DP  RH WIND       PRES   REMARKS
CHADRON        CLOUDY    50  43  77 SW12      29.89S
ALLIANCE       CLOUDY    47  43  86 W13       29.92F
SCOTTSBLUFF    CLOUDY    46  45  96 W7        29.93F
SIDNEY         CLEAR     45  39  79 NW15      29.95S

...WESTERN AND NORTH CENTRAL NEBRASKA...

CITY           SKY/WX    TMP DP  RH WIND       PRES   REMARKS
VALENTINE      CLOUDY    57  52  83 SW17G25   29.84R
AINSWORTH      CLOUDY    67  63  87 SE12      29.80S
ONEILL         CLEAR     71  63  75 SE15G21   29.84F
BROKEN BOW     CLOUDY    69  66  90 S8        29.83S
IMPERIAL       PTCLDY    52  46  80 NW16      29.92S
NORTH PLATTE   CLOUDY    57  49  74 W18       29.87R
MCCOOK         CLOUDY    60  52  74 W16       29.87R

...EASTERN NEBRASKA...

CITY           SKY/WX    TMP DP  RH WIND       PRES   REMARKS
NORFOLK        CLEAR     70  62  76 SE16      29.89F
SO SIOUX CITY  CLOUDY    70  66  87 SE13      29.93S
TEKAMAH        CLEAR     69  64  84 SE9       29.94S
COLUMBUS       PTCLDY    70  57  64 SE7       29.90F
ALBION         CLOUDY    70  64  80 SE10      29.88S
OMAHA EPPLEY   PTCLDY    72  63  73 SE10      29.95S
OFFUTT AFB     PTCLDY    69  65  85 SE9       29.95S
MILLARD        MOCLDY    72  65  78 SE5       29.95S
LINCOLN        PTCLDY    72  64  76 SE10      29.93S
NEBRASKA CITY  MOCLDY    69  59  69 S7        29.97S
BEATRICE       PTCLDY    73  65  77 SE8       29.94S
FALLS CITY     MOCLDY    69  65  86 SE8       29.97S

...NORTHERN KANSAS...

CITY           SKY/WX    TMP DP  RH WIND       PRES   REMARKS
GOODLAND       CLOUDY    51  46  83 NW16      29.94R
HILL CITY      CLOUDY    66  63  90 CALM      29.89R
NORTON         CLOUDY    64  52  63 S7        29.87S
PHILLIPSBURG   MOCLDY    70  70 100 CALM      29.87F
SMITH CENTER   CLOUDY    70  64  83 CALM      29.89S
HAYS           CLOUDY    72  63  73 S13       29.88R THUNDER
CONCORDIA      CLEAR     71  68  90 SE13      29.90S
SALINA         CLEAR     74  68  81 S13       29.90S
TOPEKA         PTCLDY    71  66  84 E3        29.99R



USA.gov is the U.S. government's official web portal to all federal, state and local government web resources and services.